CW3782 Weather Reports


Display with metric or nautical units.
time (UTC)temp
F
wind
direction
speed
MPH
gust
MPH
rain 1hr
in
rain 24hr
in
rain mn
in
humidity
%
barometer
mb
20210924072734 56 278 0.0 0.0 0.00 0.00 0.00 90 1015.1
20210924072234 56 278 0.0 0.0 0.00 0.00 0.00 90 1015.1
20210924071734 56 278 0.0 0.0 0.00 0.00 0.00 89 1015.1
20210924071234 56 278 0.0 0.0 0.00 0.00 0.00 89 1015.0
20210924070734 56 278 0.0 0.0 0.00 0.00 0.00 89 1015.1
20210924065735 56 278 0.0 0.0 0.00 0.00 0.00 89 1015.1
20210924065234 56 278 0.0 0.0 0.00 0.00 0.00 89 1015.2
20210924064735 56 278 0.0 0.0 0.00 0.00 0.00 89 1015.2
20210924064235 56 278 0.0 0.0 0.00 0.00 0.00 89 1015.1
20210924063735 56 278 0.0 0.0 0.00 0.00 0.00 88 1015.1
20210924063234 56 278 0.0 0.0 0.00 0.00 0.00 89 1015.0
20210924062235 56 278 0.0 0.0 0.00 0.00 0.00 88 1014.9
20210924061735 56 278 0.0 0.0 0.00 0.00 0.00 88 1014.8
20210924060734 56 278 0.0 0.0 0.00 0.00 0.00 88 1014.7
20210924060235 57 278 0.0 0.0 0.00 0.00 0.00 88 1014.8
20210924054735 57 278 0.0 0.0 0.00 0.00 0.00 87 1014.9
20210924054234 57 278 0.0 0.0 0.00 0.00 0.00 87 1014.9
20210924052735 57 278 0.0 0.0 0.00 0.00 0.00 87 1015.0
20210924051735 57 278 0.0 0.0 0.00 0.00 0.00 86 1015.0
20210924051234 57 278 0.0 0.0 0.00 0.00 0.00 86 1014.9
20210924050735 58 278 0.0 0.0 0.00 0.00 0.00 86 1014.9
20210924050234 58 278 0.0 0.0 0.00 0.00 0.00 86 1015.0
20210924045734 58 278 0.0 0.0 0.00 0.00 0.00 86 1015.0
20210924044735 58 278 0.0 0.0 0.00 0.00 0.00 86 1014.9
20210924044234 58 278 0.0 0.0 0.00 0.00 0.00 85 1014.9
20210924043735 58 278 0.0 0.0 0.00 0.00 0.00 85 1015.1
20210924042734 59 278 0.0 0.0 0.00 0.00 0.00 85 1015.2
20210924041734 59 278 0.0 0.0 0.00 0.04 0.00 85 1015.2
20210924041235 59 278 0.0 0.0 0.00 0.06 0.00 85 1015.2
20210924040235 59 278 0.0 0.0 0.00 0.06 0.00 84 1015.2
20210924035235 60 278 0.0 0.0 0.00 0.06 0.00 84 1015.2
20210924034735 60 278 0.0 0.0 0.00 0.06 0.00 84 1015.2
20210924033735 60 278 0.0 0.0 0.00 0.06 0.00 83 1015.1
20210924033234 60 278 0.0 0.0 0.00 0.06 0.00 83 1015.1
20210924032735 60 278 0.0 0.0 0.00 0.06 0.00 83 1014.9
20210924032235 60 278 0.0 0.0 0.00 0.06 0.00 83 1014.8
20210924031734 60 278 0.0 0.0 0.00 0.06 0.00 82 1014.7
20210924030735 60 278 0.0 0.0 0.00 0.07 0.00 81 1014.7
20210924025734 61 278 0.0 0.0 0.00 0.11 0.00 81 1014.7
20210924025234 61 278 0.0 0.0 0.00 0.13 0.00 81 1014.7
20210924024735 61 278 0.0 0.0 0.00 0.16 0.00 80 1014.7
20210924024235 61 278 0.0 0.0 0.00 0.18 0.00 80 1014.7
20210924023235 62 278 0.0 0.0 0.00 0.19 0.00 80 1014.7
20210924022235 62 278 0.0 0.0 0.00 0.19 0.00 80 1014.6
20210924021235 62 278 0.0 0.0 0.00 0.19 0.00 80 1014.6
20210924020735 63 278 0.0 0.0 0.00 0.19 0.00 80 1014.5
20210924020235 63 278 0.0 0.0 0.00 0.19 0.00 80 1014.4
20210924015234 63 278 0.0 0.0 0.00 0.19 0.00 80 1014.2
20210924014735 63 278 0.0 0.0 0.00 0.19 0.00 80 1014.1
20210924014236 63 278 0.0 0.0 0.00 0.19 0.00 79 1014.1
20210924013734 64 278 0.0 0.0 0.00 0.19 0.00 79 1014.1
20210924013235 64 278 0.0 0.0 0.00 0.19 0.00 78 1014.1
20210924012735 64 278 0.0 0.0 0.00 0.19 0.00 78 1014.1
20210924012235 64 278 0.0 0.0 0.00 0.19 0.00 78 1014.1
20210924011735 64 278 0.0 0.0 0.00 0.19 0.00 77 1014.1
20210924011235 64 278 0.0 0.0 0.00 0.19 0.00 77 1014.1
20210924010735 64 278 0.0 0.0 0.00 0.19 0.00 77 1014.1
20210924004735 65 278 0.0 0.0 0.00 0.19 0.00 76 1013.8
20210924003735 66 278 0.0 0.0 0.00 0.19 0.00 76 1013.8
20210924002734 66 278 0.0 0.0 0.00 0.19 0.00 76 1013.6
20210924001235 67 278 0.0 0.0 0.00 0.19 0.00 76 1013.5
20210924000234 67 278 0.0 0.0 0.00 0.19 0.00 73 1013.4
20210923235735 67 278 0.0 0.0 0.00 0.19 0.00 73 1013.3
20210923234735 68 278 0.0 0.0 0.00 0.19 0.00 71 1013.1
20210923234235 68 278 0.0 0.0 0.00 0.20 0.00 70 1013.1
20210923233234 69 278 0.0 0.0 0.00 0.21 0.00 67 1013.0
20210923232235 70 278 0.0 0.0 0.00 0.21 0.00 64 1012.9
20210923231235 70 278 0.0 0.0 0.00 0.21 0.00 64 1012.6
20210923230235 71 278 0.0 0.0 0.00 0.21 0.00 63 1012.6
20210923224735 71 278 0.0 0.0 0.00 0.21 0.00 63 1012.5
20210923224235 71 278 0.0 0.0 0.00 0.21 0.00 61 1012.4
20210923223735 71 278 0.0 0.0 0.00 0.21 0.00 59 1012.4
20210923223236 72 278 0.0 0.0 0.00 0.21 0.00 58 1012.2
20210923222735 72 277 0.0 0.0 0.00 0.21 0.00 59 1012.1
20210923222235 72 277 0.0 0.0 0.00 0.21 0.00 59 1012.0
20210923221735 72 277 0.0 0.0 0.00 0.21 0.00 59 1012.0
20210923221235 72 277 0.0 0.0 0.00 0.21 0.00 60 1011.9
20210923220235 73 277 0.0 0.0 0.00 0.21 0.00 60 1011.8
20210923214735 73 0 0.0 0.0 0.00 0.21 0.00 57 1011.4
20210923213736 73 0 0.0 0.0 0.00 0.21 0.00 56 1011.4
20210923212735 73 0 0.0 0.0 0.00 0.21 0.00 54 1011.4
20210923212235 73 0 0.0 0.0 0.00 0.21 0.00 55 1011.4
20210923211735 73 0 0.0 0.0 0.00 0.21 0.00 54 1011.4
20210923211235 73 348 0.0 0.0 0.00 0.21 0.00 55 1011.3
20210923210235 73 317 0.0 0.0 0.00 0.21 0.00 59 1011.2
20210923205235 74 342 0.0 0.0 0.00 0.21 0.00 55 1011.1
20210923204734 74 339 0.0 0.0 0.00 0.21 0.00 57 1011.0
20210923204235 74 288 0.0 0.0 0.00 0.21 0.00 56 1011.0
20210923203236 74 287 0.0 0.0 0.00 0.21 0.00 57 1010.9
20210923202235 74 163 0.0 0.0 0.00 0.21 0.00 55 1010.8
20210923201735 74 283 0.0 0.0 0.00 0.21 0.00 54 1010.8
20210923201235 74 355 0.0 0.0 0.00 0.21 0.00 53 1010.8
20210923200735 74 349 0.0 0.0 0.00 0.21 0.00 55 1010.6
20210923200235 74 331 0.0 0.0 0.00 0.21 0.00 61 1010.6
20210923195736 74 331 0.0 0.0 0.00 0.21 0.00 59 1010.7
20210923195235 74 329 0.0 0.0 0.00 0.21 0.00 58 1010.7
20210923194235 74 355 0.0 0.0 0.00 0.21 0.00 54 1010.8
20210923193236 74 347 0.0 0.0 0.00 0.21 0.00 56 1010.7
20210923192736 74 5 0.0 0.0 0.00 0.21 0.00 56 1010.7
20210923192235 75 8 0.0 0.0 0.00 0.21 0.00 55 1010.6
20210923191735 74 8 0.0 0.0 0.00 0.21 0.00 57 1010.8
20210923191236 74 266 0.0 0.0 0.00 0.21 0.00 62 1010.9
20210923190735 75 336 0.0 0.0 0.00 0.21 0.00 57 1010.9
20210923190236 75 285 0.0 0.0 0.00 0.21 0.00 56 1010.9
20210923185736 75 304 0.0 0.0 0.00 0.21 0.00 65 1010.9
20210923184235 74 0 0.0 0.0 0.00 0.21 0.00 57 1010.9
20210923183735 75 288 0.0 0.0 0.00 0.21 0.00 60 1010.9
20210923182736 75 286 0.0 0.0 0.00 0.21 0.00 58 1010.9
20210923182235 74 285 0.0 0.0 0.00 0.21 0.00 62 1010.9
20210923181736 75 326 0.0 0.0 0.00 0.21 0.00 62 1010.9
20210923181236 74 252 0.0 0.0 0.00 0.21 0.00 60 1010.9
20210923180736 74 331 0.0 0.0 0.00 0.21 0.00 59 1010.9
20210923180235 74 5 0.0 0.0 0.00 0.21 0.00 58 1010.9
20210923175735 74 276 0.0 0.0 0.00 0.21 0.00 60 1011.1
20210923174235 74 355 0.0 0.0 0.00 0.22 0.00 60 1011.2
20210923173736 73 316 0.0 0.0 0.00 0.23 0.00 61 1011.3
20210923173235 73 338 0.0 0.0 0.00 0.24 0.00 59 1011.4
20210923172235 73 3 0.0 0.0 0.00 0.27 0.00 63 1011.4
20210923171735 73 283 0.0 0.0 0.00 0.28 0.00 62 1011.4
20210923171235 73 283 0.0 0.0 0.00 0.29 0.00 61 1011.4
20210923170737 73 243 0.0 0.0 0.00 0.31 0.00 64 1011.5
20210923170235 73 284 0.0 0.0 0.00 0.32 0.00 61 1011.6
20210923165735 73 286 0.0 0.0 0.00 0.34 0.00 64 1011.7
20210923164735 73 314 0.0 0.0 0.00 0.37 0.00 68 1011.9
20210923164235 72 355 0.0 0.0 0.00 0.38 0.00 65 1011.8
20210923163736 72 302 0.0 0.0 0.00 0.39 0.00 65 1011.9
20210923163236 72 346 0.0 0.0 0.00 0.41 0.00 66 1011.9
20210923161736 71 355 0.0 0.0 0.00 0.51 0.00 67 1011.7
20210923160735 71 269 0.0 0.0 0.00 0.57 0.00 69 1011.8
20210923160235 71 0 0.0 0.0 0.00 0.58 0.00 71 1011.8
20210923154735 70 355 0.0 0.0 0.00 0.59 0.00 70 1011.8
20210923154235 70 355 0.0 0.0 0.00 0.59 0.00 71 1011.9
20210923153735 70 310 0.0 0.0 0.00 0.59 0.00 73 1011.7
20210923152236 70 5 0.0 0.0 0.00 0.60 0.00 74 1011.7
20210923151736 70 10 0.0 0.0 0.00 0.60 0.00 73 1011.7
20210923151235 69 5 0.0 0.0 0.00 0.60 0.00 72 1011.7
20210923150736 69 5 0.0 0.0 0.00 0.60 0.00 73 1011.6
20210923145735 69 0 0.0 0.0 0.00 0.60 0.00 73 1011.4
20210923144735 68 5 0.0 0.0 0.00 0.60 0.00 73 1011.3
20210923144236 68 5 0.0 0.0 0.00 0.60 0.00 75 1011.2
20210923143736 68 5 0.0 0.0 0.00 0.60 0.00 77 1011.1
20210923143235 68 5 0.0 0.0 0.00 0.60 0.00 79 1011.0
20210923142735 68 5 0.0 0.0 0.00 0.60 0.00 78 1010.9
20210923142235 67 5 0.0 0.0 0.00 0.60 0.00 81 1011.0
20210923141735 66 5 0.0 0.0 0.00 0.60 0.00 86 1011.0
20210923141237 65 5 0.0 0.0 0.00 0.60 0.00 89 1010.9
20210923135735 64 5 0.0 0.0 0.00 0.60 0.00 96 1010.9
20210923134736 63 5 0.0 0.0 0.00 0.60 0.00 96 1010.9
20210923134235 63 9 0.0 0.0 0.00 0.60 0.00 96 1010.8
20210923133736 63 19 0.0 0.0 0.00 0.60 0.00 96 1010.9
20210923133236 63 19 0.0 0.0 0.00 0.60 0.00 96 1010.9
20210923132235 63 53 0.0 0.0 0.00 0.60 0.00 96 1010.8
20210923131735 63 53 0.0 0.0 0.00 0.60 0.00 96 1010.8
20210923131236 63 53 0.0 0.0 0.00 0.60 0.00 96 1010.7
20210923124235 62 355 0.0 0.0 0.00 0.67 0.00 96 1010.3
20210923122736 62 355 0.0 0.0 0.00 0.68 0.00 96 1010.3
20210923122235 62 355 0.0 0.0 0.00 0.68 0.00 96 1010.3
20210923121735 62 355 0.0 0.0 0.00 0.68 0.00 96 1010.1
20210923121236 62 355 0.0 0.0 0.00 0.68 0.00 96 1010.0
20210923120736 62 355 0.0 0.0 0.00 0.68 0.00 96 1009.9
20210923114735 62 355 0.0 0.0 0.00 0.68 0.00 96 1009.7
20210923114235 62 355 0.0 0.0 0.00 0.68 0.00 96 1009.6
20210923113735 62 355 0.0 0.0 0.00 0.68 0.00 95 1009.6
20210923113236 62 355 0.0 0.0 0.00 0.68 0.00 95 1009.7
20210923112236 62 355 0.0 0.0 0.00 0.68 0.00 95 1009.7
20210923111736 62 355 0.0 0.0 0.00 0.68 0.00 95 1009.5
20210923110736 62 355 0.0 0.0 0.00 0.68 0.00 95 1009.4
20210923105736 62 355 0.0 0.0 0.00 0.68 0.00 95 1009.3
20210923104735 62 355 0.0 0.0 0.00 0.68 0.00 95 1009.2
20210923104235 62 355 0.0 0.0 0.00 0.68 0.00 95 1009.2
20210923103735 62 355 0.0 0.0 0.00 0.68 0.00 95 1009.2
20210923103236 62 355 0.0 0.0 0.00 0.68 0.00 95 1009.2
20210923102735 62 355 0.0 0.0 0.00 0.68 0.00 95 1009.2
20210923101236 62 355 0.0 0.0 0.00 0.68 0.00 95 1008.9
20210923100736 62 355 0.0 0.0 0.00 0.68 0.00 95 1008.8
20210923100237 62 355 0.0 0.0 0.00 0.68 0.00 95 1008.8
20210923095735 62 355 0.0 0.0 0.00 0.68 0.00 95 1008.7
20210923095236 62 355 0.0 0.0 0.00 0.68 0.00 95 1008.7
20210923094736 62 355 0.0 0.0 0.00 0.68 0.00 95 1008.7
20210923094236 62 355 0.0 0.0 0.00 0.68 0.00 95 1008.7
20210923093736 62 355 0.0 0.0 0.00 0.68 0.00 95 1008.7
20210923093236 62 355 0.0 0.0 0.00 0.68 0.00 95 1008.6
20210923092736 62 355 0.0 0.0 0.00 0.68 0.00 95 1008.6
20210923092236 62 355 0.0 0.0 0.00 0.68 0.00 95 1008.6
20210923091736 62 355 0.0 0.0 0.00 0.68 0.00 95 1008.6
20210923090736 62 355 0.0 0.0 0.00 0.68 0.00 94 1008.6
20210923090236 62 355 0.0 0.0 0.00 0.68 0.00 94 1008.5
20210923085236 63 355 0.0 0.0 0.00 0.68 0.00 94 1008.3
20210923083736 63 355 0.0 0.0 0.00 0.68 0.00 94 1008.4
20210923082736 63 355 0.0 0.0 0.00 0.68 0.00 94 1008.3
20210923081736 63 355 0.0 0.0 0.00 0.68 0.00 94 1008.3
20210923080236 63 355 0.0 0.0 0.00 0.68 0.00 94 1008.4
20210923075737 63 355 0.0 0.0 0.00 0.68 0.00 94 1008.6
20210923074736 63 355 0.0 0.0 0.00 0.68 0.00 94 1008.5
20210923074238 63 355 0.0 0.0 0.00 0.68 0.00 94 1008.4
20210923073236 63 355 0.0 0.0 0.00 0.68 0.00 94 1008.1